User: anonymous   Login
Location: Shades State Park
(39.9310°N, 87.0690°W)
Time: 06:45:47
(UTC-05:00)
Language:

H-2A R/B - Orbit

View from above orbital plane
View from above orbital plane
View from above satellite
View from above satellite

Ground track
Ground track

The orbit data is extracted from the following two-line orbital elements,

1 27601U 02056E   14330.84811942  .00000305  00000-0  12701-3 0  2420
2 27601 098.4722 049.6745 0072885 177.7282 320.6608 14.31471467624262
Epoch (UTC): 26 November 2014 20:21:17
Eccentricity: 0.0072885
inclination: 98.4722°
perigee height: 734 km
apogee height: 839 km
right ascension of ascending node: 49.6745°
argument of perigee: 177.7282°
revolutions per day: 14.31471467
mean anomaly at epoch: 320.6608°
orbit number at epoch: 62426

The dashed part of the orbit path shows where the satellite is in the earth's shadow,  

DLR